This is the latest recevied weather packets stored in our database for station/object 9M2VER-13. If no packets are shown the sender has not sent any weather packets the latest 1 day(s).
| Time | Temp. | Humidity | Pressure | Rain* | Wind** | Luminosity | Snow |
|---|---|---|---|---|---|---|---|
| 1778076538 | 30.56° C | 83% | 0 hPa | - | - | 0 W/m² | - |
| 1778072637 | 30.56° C | 83% | 0 hPa | - | - | 0 W/m² | - |
| 1778072337 | 30° C | 89% | 0 hPa | - | - | 0 W/m² | - |
| 1778072037 | 30° C | 85% | 0 hPa | - | - | 0 W/m² | - |
| 1778071437 | 30.56° C | 85% | 0 hPa | - | - | 0 W/m² | - |
| 1778071137 | 30.56° C | 84% | 0 hPa | - | - | 0 W/m² | - |
| 1778070837 | 30.56° C | 84% | 0 hPa | - | - | 0 W/m² | - |
| 1778070237 | 30° C | 85% | 0 hPa | - | - | 0 W/m² | - |
| 1778069937 | 30° C | 87% | 0 hPa | - | - | 0 W/m² | - |
| 1778069637 | 30° C | 81% | 0 hPa | - | - | 0 W/m² | - |
| 1778066035 | - | - | 0 hPa | - | - | 0 W/m² | - |
| 1778065735 | 31.11° C | 82% | 0 hPa | - | - | 0 W/m² | - |
| 1778065435 | 31.11° C | 83% | 0 hPa | - | - | 0 W/m² | - |
| 1778065135 | 31.11° C | 83% | 0 hPa | - | - | 0 W/m² | - |
| 1778064835 | 31.11° C | 83% | 0 hPa | - | - | 0 W/m² | - |
| 1778064535 | 31.11° C | 83% | 0 hPa | - | - | 0 W/m² | - |
| 1778064235 | 31.11° C | 84% | 0 hPa | - | - | 0 W/m² | - |
| 1778063935 | 31.11° C | 84% | 0 hPa | - | - | 0 W/m² | - |
| 1778063635 | 31.67° C | 82% | 0 hPa | - | - | 0 W/m² | - |
| 1778063035 | - | - | 0 hPa | - | - | 0 W/m² | - |
| 1778061234 | 31.67° C | 82% | 0 hPa | - | - | 0 W/m² | - |
| 1778060934 | 31.67° C | 81% | 0 hPa | - | - | 0 W/m² | - |
| 1778060334 | 31.67° C | 81% | 0 hPa | - | - | 0 W/m² | - |
| 1778060034 | 31.67° C | 81% | 0 hPa | - | - | 0 W/m² | - |
| 1778059734 | 32.22° C | 81% | 0 hPa | - | - | 0 W/m² | - |
* Rain since midnight (hover to see other rain measurements)
** Current wind speed in m/s (hover to see current wind gust speed)